www.pogodaiklimat.ru
ПОГОДА в Флиссингене
Время
(UTC), дата
22 18.01
23 18.01
00 19.01
01 19.01
02 19.01
03 19.01
04 19.01
05 19.01
06 19.01
07 19.01
08 19.01
09 19.01
10 19.01
11 19.01
12 19.01
13 19.01
14 19.01
15 19.01
16 19.01
17 19.01
18 19.01
19 19.01
20 19.01
21 19.01
22 19.01
23 19.01
00 20.01
01 20.01
02 20.01
03 20.01
04 20.01
05 20.01
06 20.01
07 20.01
08 20.01
09 20.01
10 20.01
11 20.01
12 20.01
13 20.01
14 20.01
15 20.01
16 20.01
17 20.01
18 20.01
19 20.01
20 20.01
21 20.01
22 20.01
23 20.01
00 21.01
01 21.01
02 21.01
03 21.01
04 21.01
05 21.01
06 21.01
07 21.01
08 21.01
09 21.01
10 21.01
11 21.01
12 21.01
13 21.01
14 21.01
15 21.01
16 21.01
17 21.01
18 21.01
19 21.01
20 21.01
21 21.01
22 21.01
23 21.01
00 22.01
01 22.01
02 22.01
03 22.01
04 22.01
05 22.01
06 22.01
07 22.01
08 22.01
09 22.01
10 22.01
11 22.01
12 22.01
13 22.01
14 22.01
15 22.01
16 22.01
17 22.01
18 22.01
19 22.01
20 22.01
21 22.01
22 22.01
23 22.01
00 23.01
01 23.01
02 23.01
03 23.01
04 23.01
05 23.01
06 23.01
07 23.01
08 23.01
09 23.01
10 23.01
11 23.01
12 23.01
13 23.01
14 23.01
15 23.01
16 23.01
17 23.01
18 23.01
19 23.01
20 23.01
21 23.01
22 23.01
23 23.01
00 24.01
01 24.01
02 24.01
03 24.01
04 24.01
05 24.01
06 24.01
07 24.01
08 24.01
09 24.01
10 24.01
11 24.01
12 24.01
13 24.01
14 24.01
15 24.01
16 24.01
17 24.01
18 24.01
19 24.01
20 24.01
21 24.01
22 24.01
23 24.01
00 25.01
01 25.01
02 25.01
03 25.01
04 25.01
05 25.01
06 25.01
07 25.01
08 25.01
09 25.01
10 25.01
11 25.01
12 25.01
13 25.01
14 25.01
15 25.01
16 25.01
17 25.01
18 25.01
19 25.01
20 25.01
21 25.01
22 25.01
Ветер
(напр.,м/с)
Видим. Явления Облачность Т
(С)
Тd
(С)
f
(%)
Тe
(С)
Тes
(С)
Комфортность P
(гПа)
Po
(гПа)
Тmin
(С)
Tmax
(С)
R
(мм)
R24
(мм)
S
(см)
ЮЗ 10-13
{13}
15 км 10/10 1000 м +5.9 +4.0 88 -0 -0 1017.0 1015.9
Ю 10-12
{13}
17 км 10/10 +5.7 +3.0 83 -1 -1 1016.3 1015.1
Ю 11-14
{14}
19 км 10 баллов +5.7 +2.8 82 -1 -1 1015.0 1013.9
Ю 12-15
{15}
11 км морось с дождем 10/10 600 м +5.5 +3.2 85 -1 -1 1013.7 1012.6
Ю 12-14
{14}
4500 м сильн. морось {ливн. дождь, дождь} 10/8 300 м +5.0 +3.9 93 -2 -2 1012.2 1011.2 0.7
Ю 13-16
{18}
11 км в посл. час морось {ливн. дождь, дождь} 10/10 240 м +5.7 +4.4 91 -1 -1 1010.4 1009.3 0.1
Ю 13 10 км морось {ливн. дождь, дождь} 10/10 300 м +6.0 +4.7 91 -1 -1 1008.9 1007.9 0.1
Ю 14 4400 м дождь {ливн. дождь, морось} 10/6 300 м +6.1 +5.0 93 -1 -1 1007.7 1006.6 2
ЮЗ 16-19
{19}
6000 м сильн. морось {ливн. дождь, дождь} 10/10 270 м +6.6 +5.4 92 -1 -1 1006.1 1005.0 +5.0 1 3.8
ЮЗ 14 8000 м морось 10/8 300 м +6.8 +5.7 93 0 0 1005.5 1004.4 0.6
ЮЗ 15 6000 м морось с дождем 10/10 300 м +7.1 +6.2 94 0 0 1005.2 1003.9 0.5
ЮЗ 14-18
{19}
17 км в посл. час дождь {морось} 10/10 210 м +8.5 +7.7 95 +2 +2 1005.4 1004.2 0.8
ЮЗ 17 10 км слаб. морось {дождь} 10/10 300 м +9.4 +8.2 92 +3 +3 1005.5 1004.3 0.1
ЮЗ 17 10 км в посл. час морось {ливн. дождь, дождь} 10/10 300 м +9.7 +8.3 91 +4 +4 1005.5 1004.4
ЮЗ 18-23
{23}
9000 м дымка {ливн. дождь} 10/10 240 м +9.9 +8.5 91 +4 +4 1005.4 1004.3
З 17 12 км 10/10 300 м +9.9 +8.0 88 +4 +4 1005.2 1004.2
ЮЗ 13 12 км 10/10 300 м +9.3 +7.7 90 +4 +4 1005.7 1004.4
ЮЗ 13-16
{20}
14 км 10/10 330 м +8.9 +7.4 90 +3 +3 1005.7 1004.5
ЮЗ 14 14 км 10/10 600 м +8.7 +6.5 86 +3 +3 1005.6 1004.4
ЮЗ 12 17 км 10/10 600 м +8.3 +6.2 87 +3 +3 1005.7 1004.6
ЮЗ 11-14
{18}
19 км 10 баллов +8.2 +6.0 86 +3 +3 1005.3 1004.1 +10.2 2
Ю 11 11 км 10/9 300 м +7.7 +5.8 88 +2 +2 1004.7 1003.6
Ю 12 16 км 10/10 1000 м +7.7 +5.3 85 +2 +2 1004.1 1003.0
Ю 13-16
{16}
17 км 10/10 450 м +7.5 +5.2 85 +1 +1 1003.2 1002.1
Ю 13-15
{15}
15 км 10/8 600 м +7.4 +4.9 84 +1 +1 1002.6 1001.4
Ю 12-14
{15}
17 км 10/9 600 м +7.2 +4.7 84 +1 +1 1001.9 1000.7
Ю 12-16
{17}
16 км 10/10 480 м +7.3 +4.8 84 +1 +1 1001.0 999.9
Ю 13-16
{16}
15 км 10/10 300 м +7.2 +4.8 85 +1 +1 1000.5 999.3
Ю 12-16
{16}
14 км 10/10 300 м +7.3 +5.0 85 +1 +1 999.9 998.8
Ю 12-14
{17}
15 км 10/10 630 м +7.5 +5.1 85 +2 +2 999.3 998.1
Ю 13 19 км 10/10 600 м +7.7 +4.9 82 +2 +2 998.7 997.6
Ю 11 15 км 10/10 300 м +7.8 +5.1 83 +2 +2 998.3 997.1
Ю 12-16
{16}
15 км 10/10 420 м +7.8 +5.5 85 +2 +2 997.6 996.4 +7.0 1.9
Ю 12 20 км 10/10 +7.6 +5.5 87 +2 +2 997.2 996.0
Ю 12 24 км 10/10 600 м +7.9 +4.8 81 +2 +2 997.3 996.0
Ю 13-15
{16}
21 км 10/10 750 м +7.7 +4.3 79 +2 +2 997.0 995.8
Ю 12 15 км в посл. час морось 10/10 1000 м +7.5 +3.9 78 +2 +2 996.5 995.4
Ю 12 19 км 10/10 1000 м +7.9 +4.0 76 +2 +2 995.8 994.7
Ю 12-14
{16}
30 км 10/10 1500 м +7.9 +4.1 77 +2 +2 994.8 993.7
Ю 13 28 км 10/10 1500 м +8.4 +3.7 72 +3 +3 994.1 992.9
Ю 15 24 км 10/10 +8.6 +3.3 69 +3 +3 992.9 991.7
Ю 14-16
{18}
23 км 10/10 +8.6 +3.0 68 +3 +3 992.2 991.0
Ю 12 25 км 10/10 +8.7 +3.1 68 +4 +4 991.9 990.7
Ю 11 30 км 10/10 +8.8 +3.1 67 +4 +4 991.3 990.3
Ю 14-18
{18}
19 км 10/10 2000 м +9.2 +3.2 66 +4 +4 990.6 989.5 +9.6
Ю 15 15 км слаб. морось с дождем 10/10 +8.9 +4.1 72 +3 +3 990.3 989.1
Ю 14 22 км в посл. час дождь {ливн. дождь, морось} 10/10 +9.3 +4.0 69 +4 +4 989.0 987.9
Ю 14 19 км {ливн. дождь, морось} 10/10 +9.4 +4.1 69 +4 +4 987.9 986.7
Ю 15-18
{19}
24 км {ливн. дождь, морось} 8/8 +9.6 +4.3 70 +4 +4 986.6 985.5
Ю 15-18
{19}
20 км {ливн. дождь, морось} 10/10 +9.9 +4.9 71 +5 +5 984.5 983.5
Ю 17-22
{23}
9000 м слаб. ливневой дождь {морось} 10/10 1500 м +9.9 +5.5 74 +4 +4 982.7 981.7 0.2
Ю 19-24
{25}
11 км в посл. час дождь {ливн. дождь, морось} 10/9 600 м +9.7 +6.1 78 +4 +4 981.2 980.2
Ю 18-23
{23}
11 км {ливн. дождь, морось} 10/9 600 м +9.6 +6.6 82 +4 +4 980.5 979.4
ЮЗ 17-21
{26}
13 км слаб. ливневой дождь {морось} 9/9 1500 м +7.6 +4.5 81 +1 +1 982.3 981.0 3
ЮЗ 18 11 км в посл. час дождь {ливн. дождь} 10/8 600 м +7.3 +3.1 75 0 0 984.1 982.9
ЮЗ 17 11 км {ливн. дождь, дождь} 1/1 600 м +6.5 +2.0 73 -1 -1 986.3 985.0
ЮЗ 14 11 км {ливн. дождь, дождь} ясно +6.3 +2.3 76 -0 -0 987.9 986.6 +6.0
ЮЗ 11 15 км ясно +5.7 +2.1 78 -1 -1 989.0 987.8
Ю 10 18 км ясно +5.5 +2.2 79 -1 -1 989.9 988.7
Ю 12 17 км в посл. час дождь 5/5 600 м +6.5 +3.5 81 0 0 990.1 988.9
ЮЗ 12 20 км {ливн. дождь} 8/8 +6.6 +3.3 79 0 0 990.3 989.1
ЮЗ 14 21 км {ливн. дождь} 10/9 +7.0 +3.5 78 +1 +1 990.5 989.2
ЮЗ 13 19 км {ливн. дождь} 8/8 +7.2 +3.8 79 +1 +1 990.4 989.2
ЮЗ 14 18 км 10/9 2000 м +7.9 +3.9 76 +2 +2 989.9 988.6
ЮЗ 13 19 км в посл. час дождь 10/9 600 м +7.7 +3.6 75 +2 +2 989.9 988.7
Ю 12 19 км {ливн. дождь} 10/6 1000 м +7.5 +3.5 76 +2 +2 989.5 988.4
Ю 10 19 км {ливн. дождь} 10/10 2000 м +7.4 +3.8 78 +2 +2 988.9 987.8
Ю 11 11 км морось {ливн. дождь} 10/8 1000 м +6.9 +3.7 80 +1 +1 988.6 987.4
Ю 5 11 км дождь {ливн. дождь, морось} 10/6 600 м +5.9 +4.2 89 +1 +1 987.1 986.1 +7.9 0.9
В 2 5000 м дождь 10/10 600 м +5.3 +4.7 96 +3 +3 985.1 984.0 3
С 3 7000 м слаб. дождь 10/10 600 м +4.6 +3.9 95 +1 +1 983.4 982.4 2
С 4 6000 м дождь 10/10 600 м +4.6 +4.1 97 0 0 983.1 982.0 2
СЗ 5-7
{7}
9000 м слаб. дождь 10/8 600 м +4.2 +3.4 95 -1 -1 983.8 982.5 1
СЗ 4-6
{8}
12 км дождь {морось} 10/10 600 м +4.3 +3.2 93 -0 -0 984.9 983.9 0.8
З 5-7
{8}
20 км слаб. морось с дождем 10/6 1000 м +4.6 +2.8 88 -0 -0 985.7 984.5 0.1
ЮЗ 6-7
{8}
28 км в посл. час дождь {морось} 10/10 +5.1 +3.4 89 -0 -0 986.5 985.2
ЮЗ 8-10
{10}
26 км в посл. час морось 6/6 600 м +4.7 +3.4 91 -1 -1 987.3 986.1
ЮЗ 9-10
{11}
18 км 6/6 600 м +4.7 +3.5 92 -2 -2 987.8 986.5
ЮЗ 7 18 км 1/1 600 м +5.3 +3.8 90 -0 -0 988.7 987.4
ЮЗ 6 17 км 5/4 600 м +3.9 +2.9 93 -2 -2 989.4 988.1
ЮЗ 7 12 км 10/10 +3.6 +2.7 94 -3 -3 989.5 988.3 +3.5
ЮЗ 6 14 км 10/10 +3.6 +2.7 94 -2 -2 990.4 989.2
ЮЗ 5 15 км 10/10 +3.3 +2.4 94 -2 -2 991.0 989.8
ЮЗ 7 14 км 10/10 +3.4 +2.4 93 -3 -3 991.9 990.6
ЮЗ 6 15 км 10/10 +3.7 +2.6 93 -2 -2 993.1 991.8
ЮЗ 6 22 км 9/9 +4.9 +3.5 91 -0 -0 993.5 992.2
ЮЗ 6 17 км 4/4 +5.6 +4.0 89 +1 +1 993.7 992.5
ЮЗ 6 21 км 10/10 +6.2 +4.0 86 +1 +1 994.1 992.9
ЮЗ 5 17 км 10/10 +6.3 +3.7 83 +2 +2 994.5 993.3
ЮЗ 6 22 км 10/10 +5.9 +3.4 84 +1 +1 994.9 993.7
ЮЗ 5 16 км 10/10 +5.3 +3.1 86 +1 +1 994.9 993.7
ЮЗ 4 17 км 10/10 +4.9 +3.3 89 +1 +1 995.2 994.0
Ю 5 20 км 10/10 +5.1 +2.9 86 0 0 995.6 994.4 +6.5
ЮЗ 5 21 км 10/10 +4.5 +2.1 84 -0 -0 995.8 994.6
Ю 5 18 км 10/10 +4.2 +2.0 86 -1 -1 995.6 994.5
Ю 6 18 км 10/10 +4.5 +2.1 84 -1 -1 995.6 994.4
Ю 5-6
{9}
18 км 10/10 +4.3 +2.4 87 -1 -1 995.5 994.4
Ю 7-8
{8}
14 км 10/8 1000 м +4.1 +2.8 91 -2 -2 995.5 994.3
Ю 8-10
{10}
15 км слаб. морось 9/6 1000 м +4.6 +3.3 91 -2 -2 995.0 993.8
Ю 6-8
{8}
15 км в посл. час дождь {ливн. дождь} 10/9 1500 м +4.3 +3.1 92 -1 -1 994.5 993.3
ЮЗ 9-11
{11}
28 км {ливн. дождь, дождь} 9/9 +4.4 +2.9 90 -2 -2 994.2 993.0
Ю 8-10
{12}
27 км {ливн. дождь, дождь} 10/10 +4.3 +2.5 88 -2 -2 993.7 992.5
ЮЗ 8 35 км {ливн. дождь, дождь} 9/6 600 м +4.0 +2.2 88 -2 -2 993.8 992.7
Ю 7 30 км {ливн. дождь, дождь} 9/9 1000 м +3.7 +2.1 89 -2 -2 993.7 992.5
ЮЗ 8 27 км {ливн. дождь, дождь} 10/10 600 м +4.1 +2.6 90 -2 -2 994.0 992.7 +3.6
Ю 7 27 км 10/10 1000 м +4.1 +2.6 90 -2 -2 994.4 993.2
ЮЗ 6 22 км 10/10 1000 м +3.7 +2.4 91 -2 -2 994.7 993.5
ЮЗ 6 23 км 9/9 +3.7 +2.3 91 -2 -2 994.6 993.4
Ю 5 23 км 10/10 +3.8 +2.4 91 -1 -1 994.5 993.3
Ю 4 25 км 10/10 +4.0 +2.6 91 -1 -1 994.4 993.2
Ю 3 20 км 10/10 +3.6 +2.3 91 -0 -0 994.2 993.0
Ю 5 17 км 10/10 1500 м +4.1 +2.8 91 -1 -1 993.7 992.5
З 2 18 км 10/10 1000 м +4.3 +2.6 89 +1 +1 993.6 992.4
ЮЗ 1 21 км 10/8 1000 м +4.3 +2.3 87 +3 +3 993.6 992.4
СЗ 2 20 км 10/10 1500 м +4.1 +2.1 87 +1 +1 993.6 992.4
СЗ 2 17 км 10/10 1500 м +4.1 +2.2 87 +1 +1 994.0 992.8
СЗ 3 26 км 10/6 1000 м +3.8 +1.3 84 0 0 994.0 992.8 +4.4
СЗ 3 30 км 10/10 +3.6 +0.7 81 -0 -0 994.3 993.0
СЗ 3 40 км 10/10 +3.1 -0.1 79 -1 -1 994.6 993.4
З 8 5000 м снежные зёрна 10/8 600 м +1.1 -0.5 89 -6 -6 994.8 993.6 0.6
СЗ 4-6
{6}
40 км в посл. час дождь {ливн. дождь} 10/8 1000 м +2.1 +0.6 90 -3 -3 995.0 993.7 0.6
СЗ 5-9
{9}
29 км слаб. ливневой дождь 10/10 1500 м +1.6 +0.3 91 -4 -4 995.3 994.1
СЗ 5-8
{11}
9000 м слаб. ливневой дождь 10/6 300 м +1.5 +0.4 92 -4 -4 995.8 994.5 0.8
З 6-9
{9}
21 км слаб. морось {гроза} 10/6 600 м +3.3 +1.0 85 -2 -2 995.8 994.5 1
СЗ 6-10
{10}
30 км в посл. час гроза без осадков 5/5 1000 м +3.2 -0.8 75 -2 -2 996.7 995.5
З 6-9
{10}
20 км {гроза, снег} 4/4 1000 м +3.4 -1.1 72 -2 -2 997.3 996.0
С 2 26 км {гроза, снег} 10/8 600 м +2.8 +0.4 84 -0 -0 997.9 996.7
З 6 40 км {гроза, снег} 1/1 600 м +3.2 -1.1 73 -2 -2 998.3 997.0
З 6 40 км {гроза, снег} 1/1 600 м +3.2 -1.7 70 -2 -2 998.6 997.4 +1.0
З 5 30 км 9/9 +3.3 -1.8 69 -2 -2 999.0 997.8
З 4 30 км 5/5 +2.9 -1.7 72 -2 -2 999.8 998.6
ЮЗ 5 24 км 10/10 +2.8 -0.5 79 -2 -2 1000.1 998.9
Ю 6 18 км 10/10 +3.0 +0.3 82 -3 -3 1000.1 998.8
ЮЗ 7 22 км 10/10 +2.8 +0.3 84 -3 -3 1000.3 999.1
Ю 6 19 км 10/10 +3.3 +0.6 82 -2 -2 1000.0 998.8
Ю 7 20 км 10/10 +2.7 +0.2 84 -4 -4 999.4 998.2
Ю 6 20 км 10/10 +3.1 +0.2 81 -3 -3 998.5 997.4
ЮВ 6 25 км 10/10 2000 м +3.3 +0.2 80 -2 -2 998.1 996.9
ЮВ 8 19 км 10/10 2000 м +3.3 +0.4 81 -3 -3 997.5 996.3
ЮВ 8 20 км 10/10 1000 м +3.2 +0.4 82 -3 -3 997.0 995.8
ЮВ 9-11
{11}
7000 м слаб. ливневой дождь 10 баллов +2.4 +0.7 89 -5 -5 996.2 995.1 +3.9 0.3
ЮВ 10 5000 м дождь со снегом {ливн. снег} 10/10 200 м +1.8 +0.8 93 -6 -6 995.5 994.3 0.6
ЮВ 10 4800 м слаб. дождь со снегом 10/10 100 м +1.7 +0.9 94 -6 -6 995.4 994.2 2
ЮВ 8 8000 м слаб. дождь 10/10 200 м +2.0 +1.3 95 -5 -5 995.3 994.1 0.5
ЮВ 6-7
{8}
8000 м в посл. час дождь {ливн. дождь} 10/10 100 м +1.9 +1.2 95 -4 -4 995.4 994.2
ЮВ 6-7
{7}
8000 м дымка {ливн. дождь, снег} 10/10 100 м +2.3 +1.5 94 -4 -4 995.6 994.4
ЮВ 4-5
{9}
10 км {ливн. дождь, снег} 10/10 150 м +2.2 +1.5 95 -3 -3 996.2 995.0
В 2-3
{4}
12 км 10/9 200 м +2.4 +1.5 94 -1 -1 996.8 995.6
СВ 4-5
{5}
5000 м дымка 10/9 100 м +1.6 +0.9 95 -4 -4 997.5 996.3
С 4-6
{7}
4700 м дымка 10/10 100 м +1.5 +0.8 95 -4 -4 998.4 997.1
С 5 9000 м дымка 10/9 200 м +1.4 +0.7 95 -5 -5 999.5 998.2
С 6 9000 м дымка 10/6 200 м +1.5 +0.6 94 -5 -5 1000.4 999.1
С 4 7000 м дымка 9/8 200 м +1.3 +0.3 93 -4 -4 1001.6 1000.3 +1.1
С 3 7000 м дымка 1/1 300 м +1.1 +0.2 94 -4 -4 1002.7 1001.4
С 3 11 км ясно +1.3 +0.1 92 -3 -3 1003.8 1002.5
СЗ 2 14 км 1/1 1000 м +2.1 +0.4 88 -1 -0 1005.0 1003.7
С 2 21 км 3/1 600 м +4.0 +1.1 81 +1 +3 1005.9 1004.7
З 3 19 км ясно +4.7 +1.3 79 +1 +3 1006.8 1005.5
З 5-7
{11}
27 км в посл. час морось {дымка} 9/9 450 м +3.9 +0.4 78 -1 -1 1007.5 1006.2
З 4 30 км 8/8 +5.2 +0.6 72 +1 +2 1007.7 1006.5
З 6 29 км 8/8 +5.4 -0.3 67 +1 +1 1008.0 1006.8
З 6 28 км 10/10 +5.2 +0.8 73 0 0 1008.6 1007.4
З 9 21 км 10/10 +4.8 +1.0 76 -1 -1 1008.9 1007.8
З 9 21 км 10/8 600 м +5.1 +1.6 78 -1 -1 1009.4 1008.2
З 8 22 км 10/6 600 м +5.2 +1.5 77 -0 -0 1010.0 1008.7 +5.5
З 9 18 км 10/8 1000 м +5.4 +1.6 76 -1 -1 1010.5 1009.3
З 8 19 км 10/6 1000 м +5.4 +1.4 75 -0 -0 1011.1 1009.9
З 10 18 км 10/10 1000 м +5.5 +1.4 75 -1 -1 1011.6 1010.3
З 10-14
{14}
16 км 10/10 1000 м +5.5 +1.2 74 -1 -1 1012.2 1010.9
Местоположение метеостанции Флиссинген (Нидерланды): широта 51.45 долгота 3.60 высота над уровнем моря 10 м.
В архиве по умолчанию представлена погода в Флиссингене за последнюю неделю. Архивные данные за месяц целиком и за предыдущие месяцы, начиная с января 2011 года, Вы можете получить, выбрав интересующий диапазон дат из раскрывающегося списка и нажав кнопку "Найти!".
*Определитесь, кто Вы:
Внимание! Время в таблицах - всемирное. Для получения местного времени необходимо прибавить поправку, которая равна 1 ч.
Смотрите также архив погоды в соседних городах и на ближайших метеорологических станциях:
Партнеры нашего сайта:
Запчасти citroen c3 picasso
Запчасти на CITROEN C3 по минимальной цене
autodoc.ru

     
Пояснения к столбцам:
  • Ветер - указаны скорость ветра в м/с - средняя за 10 мин, порывы в срок и между сроками (в фигурных скобках) и направление, откуда дует ветер: С - северный,
  • СВ - северо-восточный, В - восточный, ЮВ - юго-восточный, Ю - южный, ЮЗ - юго-западный, З - западный, СЗ - северо-западный.
  • Видимость - горизонтальная дальность видимости в метрах или километрах. При видимости от 1 до 10 км при отсутствии осадков обычно наблюдается дымка, при ухудшении видимости до 1 км и менее - туман. В сухую погоду видимость может ухудшаться дымом, пылью или мглою.
  • Явления - указаны атмосферные явления, наблюдавшиеся в срок или в последний час перед сроком; фигурными скобками обозначены явления, наблюдавшиеся между сроками (за 1-3 часа до срока); квадратными скобками обозначены град или гололедные отложения с указанием их диаметра в мм.
  • Облачность - указаны через наклонную черту общая и нижняя облачность в баллах и высота нижней границы облаков в метрах; квадратными скобками обозначены формы облаков: Ci - перистые, Cs - перисто-слоистые, Cc - перисто-кучевые, Ac - высококучевые, As - высокослоистые, Sc - слоисто-кучевые, Ns - слоисто-дождевые, Cu - кучевые, Cb - кучево-дождевые. Подробнее классификацию облаков см. в Атласе облаков (PDF).
  • T - Температура воздуха - температура, измеренная на высоте 2 м над землей.
  • Td - Температура точки росы - температура, при понижении до которой содержащийся в воздухе водяной пар достигнет насыщения.
  • f - Относительная влажность воздуха - влажноcть воздуха, измеренная на высоте 2 м над землей.
  • Te - Эффективная температура - температура, которую ощущает одетый по сезону человек в тени. Характеристика душности погоды. При расчете учитывается влияние влажности воздуха и скорости ветра на теплоощущения человека.
  • Tes - Эффективная температура на солнце - температура, которую ощущает человек, с поправкой на солнечный нагрев. Характеристика знойности погоды. Зависит от высоты солнца над горизонтом, облачности и скорости ветра. Ночью, в пасмурную погоду, а также при ветре 12 м/с и более поправка равна нулю.
  • P - Атмосферное давление - приведенное к уровню моря атмосферное давление.
  • Po - Атмосферное давление - измеренное на уровне метеостанции атмосферное давление.
  • Tmin - Минимальная температура - минимум температуры воздуха на высоте 2 м над землей.
  • Tmax - Максимальная температура - максимум температуры воздуха на высоте 2 м над землей.
  • R - Количество осадков - Количество выпавших осадков за период времени, мм. При наведении курсора мыши на число - период времени, за который выпало указанное количество осадков.
  • R24 - Количество осадков - Количество выпавших осадков за 24 часа, мм.
  • S - Снежный покров - Высота снежного покрова, см. При наведении курсора мыши на число - состояние снежного покрова и степень покрытия местности в баллах.